When you browse on this site, cookies collect data to enhance your experience and personalize the content and advertising you see.
Visit our Privacy Policy to learn more. By continuing to use the site, you agree to this use of cookies and data.
  • In Lithuania
  • List of Countries
  • For 7 days
  • Water Temperature
  • Satellite Maps
  • Weather Map
  • Weather Widgets
  • user-avatar
    Login

    Hourly Weather Olhovec

    Today, 17 June, Monday

    Time Temperature Precipitation Wind Pressure Humidity
    00:00 +15°C° 0 mm 1 mps 744 mmHg 90%
    01:00 +14°C° 0 mm 1 mps 744 mmHg 90%
    02:00 +14°C° 0 mm 1 mps 744 mmHg 90%
    03:00 +13°C° 0 mm 1 mps 744 mmHg 88%
    04:00 +14°C° 0 mm 1 mps 744 mmHg 88%
    05:00 +15°C° 0 mm 1 mps 744 mmHg 87%
    06:00 +16°C° 0 mm 1 mps 744 mmHg 86%
    07:00 +18°C° 0 mm 1 mps 744 mmHg 82%
    08:00 +20°C° 0 mm 1 mps 745 mmHg 77%
    09:00 +21°C° 0 mm 1 mps 745 mmHg 71%
    10:00 +21°C° 0.1 mm 2 mps 745 mmHg 69%
    11:00 +23°C° 0.1 mm 2 mps 745 mmHg 67%
    12:00 +22°C° 0.1 mm 3 mps 745 mmHg 65%
    13:00 +24°C° 0 mm 3 mps 744 mmHg 64%
    14:00 +24°C° 0 mm 3 mps 744 mmHg 63%
    15:00 +25°C° 0 mm 3 mps 744 mmHg 60%
    16:00 +24°C° 0 mm 2 mps 744 mmHg 64%
    17:00 +24°C° 0 mm 2 mps 744 mmHg 68%
    18:00 +23°C° 0 mm 2 mps 744 mmHg 72%
    19:00 +21°C° 0 mm 2 mps 744 mmHg 75%
    20:00 +19°C° 0 mm 2 mps 744 mmHg 78%
    21:00 +19°C° 0 mm 1 mps 744 mmHg 82%
    22:00 +18°C° 0 mm 1 mps 744 mmHg 83%
    23:00 +18°C° 0 mm 1 mps 744 mmHg 84%

    Tomorrow, 18 June, Tuesday

    Time Temperature Precipitation Wind Pressure Humidity
    00:00 +16°C° 0 mm 1 mps 744 mmHg 86%
    01:00 +16°C° 0 mm 2 mps 744 mmHg 87%
    02:00 +16°C° 0 mm 2 mps 744 mmHg 88%
    03:00 +16°C° 0 mm 2 mps 743 mmHg 90%
    04:00 +16°C° 0.3 mm 2 mps 743 mmHg 90%
    05:00 +17°C° 0.3 mm 2 mps 743 mmHg 90%
    06:00 +17°C° 0.3 mm 3 mps 743 mmHg 91%
    07:00 +18°C° 1.3 mm 3 mps 743 mmHg 89%
    08:00 +19°C° 1.3 mm 3 mps 743 mmHg 88%
    09:00 +20°C° 1.3 mm 3 mps 743 mmHg 87%
    10:00 +22°C° 0.9 mm 3 mps 743 mmHg 84%
    11:00 +24°C° 0.9 mm 3 mps 743 mmHg 81%
    12:00 +25°C° 0.9 mm 3 mps 743 mmHg 77%
    13:00 +25°C° 0.9 mm 3 mps 742 mmHg 77%
    14:00 +25°C° 0.9 mm 3 mps 742 mmHg 76%
    15:00 +25°C° 0.9 mm 4 mps 742 mmHg 75%
    16:00 +25°C° 0.7 mm 3 mps 742 mmHg 77%
    17:00 +25°C° 0.7 mm 3 mps 742 mmHg 78%
    18:00 +25°C° 0.7 mm 3 mps 742 mmHg 79%
    19:00 +23°C° 0.1 mm 2 mps 742 mmHg 81%
    20:00 +21°C° 0.1 mm 2 mps 742 mmHg 82%
    21:00 +19°C° 0.1 mm 2 mps 742 mmHg 83%
    22:00 +18°C° 0 mm 2 mps 743 mmHg 85%
    23:00 +18°C° 0 mm 3 mps 743 mmHg 87%

    Day after tomorrow, 19 June, Wednesday

    Time Temperature Precipitation Wind Pressure Humidity
    00:00 +17°C° 0 mm 3 mps 743 mmHg 89%
    01:00 +16°C° 0 mm 3 mps 743 mmHg 89%
    02:00 +16°C° 0 mm 3 mps 743 mmHg 89%
    03:00 +14°C° 0 mm 3 mps 744 mmHg 90%
    04:00 +14°C° 0 mm 3 mps 744 mmHg 89%
    05:00 +16°C° 0 mm 3 mps 744 mmHg 88%
    06:00 +16°C° 0 mm 3 mps 744 mmHg 87%
    07:00 +17°C° 0 mm 3 mps 745 mmHg 82%
    08:00 +19°C° 0 mm 3 mps 745 mmHg 78%
    09:00 +21°C° 0 mm 3 mps 745 mmHg 74%
    10:00 +22°C° 0 mm 3 mps 745 mmHg 69%
    11:00 +24°C° 0 mm 3 mps 745 mmHg 65%
    12:00 +25°C° 0 mm 4 mps 745 mmHg 61%
    13:00 +25°C° 0 mm 4 mps 745 mmHg 60%
    14:00 +25°C° 0 mm 3 mps 745 mmHg 60%
    15:00 +26°C° 0 mm 3 mps 745 mmHg 60%
    16:00 +25°C° 0 mm 3 mps 745 mmHg 63%
    17:00 +25°C° 0 mm 2 mps 745 mmHg 66%
    18:00 +25°C° 0 mm 2 mps 745 mmHg 70%
    19:00 +23°C° 0 mm 2 mps 745 mmHg 72%
    20:00 +22°C° 0 mm 1 mps 745 mmHg 73%
    21:00 +20°C° 0 mm 1 mps 745 mmHg 75%
    22:00 +19°C° 0 mm 1 mps 745 mmHg 75%
    23:00 +19°C° 0 mm 1 mps 746 mmHg 75%

    20 June, Thursday

    Time Temperature Precipitation Wind Pressure Humidity
    00:00 +18°C° 0 mm 1 mps 746 mmHg 75%
    01:00 +18°C° 0 mm 1 mps 746 mmHg 77%
    02:00 +16°C° 0 mm 1 mps 746 mmHg 79%
    03:00 +16°C° 0 mm 1 mps 746 mmHg 81%
    04:00 +18°C° 0 mm 1 mps 746 mmHg 81%
    05:00 +18°C° 0 mm 1 mps 747 mmHg 81%
    06:00 +19°C° 0 mm 1 mps 747 mmHg 81%
    07:00 +21°C° 0 mm 1 mps 747 mmHg 76%
    08:00 +22°C° 0 mm 1 mps 747 mmHg 71%
    09:00 +24°C° 0 mm 1 mps 747 mmHg 67%
    10:00 +25°C° 0 mm 1 mps 747 mmHg 61%
    11:00 +26°C° 0 mm 1 mps 747 mmHg 56%
    12:00 +27°C° 0 mm 1 mps 747 mmHg 50%
    13:00 +25°C° 0 mm 0 mps 747 mmHg 49%
    14:00 +26°C° 0 mm 0 mps 747 mmHg 47%
    15:00 +26°C° 0 mm 0 mps 747 mmHg 45%
    16:00 +26°C° 0 mm 0 mps 747 mmHg 50%
    17:00 +26°C° 0 mm 0 mps 747 mmHg 54%
    18:00 +26°C° 0 mm 0 mps 747 mmHg 58%
    19:00 +25°C° 0 mm 1 mps 746 mmHg 62%
    20:00 +23°C° 0 mm 1 mps 746 mmHg 65%
    21:00 +21°C° 0 mm 1 mps 746 mmHg 68%
    22:00 +21°C° 0 mm 1 mps 747 mmHg 69%
    23:00 +20°C° 0 mm 1 mps 747 mmHg 70%

    21 June, Friday

    Time Temperature Precipitation Wind Pressure Humidity
    00:00 +19°C° 0 mm 1 mps 747 mmHg 71%
    01:00 +19°C° 0 mm 1 mps 747 mmHg 72%
    02:00 +19°C° 0 mm 1 mps 747 mmHg 72%
    03:00 +18°C° 0 mm 1 mps 747 mmHg 73%
    04:00 +19°C° 0 mm 1 mps 747 mmHg 75%
    05:00 +20°C° 0 mm 1 mps 748 mmHg 76%
    06:00 +20°C° 0 mm 1 mps 748 mmHg 78%
    07:00 +21°C° 0 mm 1 mps 748 mmHg 74%
    08:00 +23°C° 0 mm 1 mps 748 mmHg 71%
    09:00 +24°C° 0 mm 1 mps 748 mmHg 67%
    10:00 +25°C° 0 mm 1 mps 748 mmHg 63%
    11:00 +26°C° 0 mm 2 mps 748 mmHg 59%
    12:00 +27°C° 0 mm 2 mps 748 mmHg 55%
    13:00 +27°C° 0 mm 2 mps 748 mmHg 54%
    14:00 +27°C° 0 mm 2 mps 748 mmHg 53%
    15:00 +27°C° 0 mm 2 mps 747 mmHg 53%
    16:00 +27°C° 0 mm 2 mps 747 mmHg 58%
    17:00 +27°C° 0 mm 2 mps 747 mmHg 64%
    18:00 +27°C° 0 mm 2 mps 747 mmHg 69%
    19:00 +25°C° 0 mm 2 mps 747 mmHg 72%
    20:00 +23°C° 0 mm 2 mps 747 mmHg 76%
    21:00 +21°C° 0 mm 2 mps 747 mmHg 79%
    22:00 +20°C° 0 mm 2 mps 747 mmHg 79%
    23:00 +20°C° 0 mm 2 mps 747 mmHg 79%

    22 June, Saturday

    Time Temperature Precipitation Wind Pressure Humidity
    00:00 +19°C° 0 mm 2 mps 747 mmHg 79%
    01:00 +19°C° 0 mm 2 mps 747 mmHg 79%
    02:00 +18°C° 0 mm 2 mps 747 mmHg 78%
    03:00 +18°C° 0 mm 2 mps 747 mmHg 78%
    04:00 +18°C° 0 mm 2 mps 747 mmHg 79%
    05:00 +19°C° 0 mm 2 mps 747 mmHg 81%
    06:00 +19°C° 0 mm 2 mps 747 mmHg 82%
    07:00 +21°C° 0 mm 2 mps 747 mmHg 79%
    08:00 +22°C° 0 mm 3 mps 747 mmHg 76%
    09:00 +25°C° 0 mm 3 mps 747 mmHg 73%
    10:00 +26°C° 0.1 mm 3 mps 747 mmHg 69%
    11:00 +27°C° 0.1 mm 3 mps 747 mmHg 66%
    12:00 +28°C° 0.1 mm 4 mps 747 mmHg 63%
    13:00 +28°C° 0.1 mm 4 mps 747 mmHg 62%
    14:00 +28°C° 0.1 mm 4 mps 747 mmHg 61%
    15:00 +28°C° 0.1 mm 4 mps 747 mmHg 61%
    16:00 +28°C° 0 mm 4 mps 746 mmHg 65%
    17:00 +28°C° 0 mm 3 mps 746 mmHg 68%
    18:00 +27°C° 0 mm 3 mps 746 mmHg 72%
    19:00 +26°C° 0 mm 3 mps 746 mmHg 76%
    20:00 +24°C° 0 mm 3 mps 746 mmHg 79%
    21:00 +22°C° 0 mm 3 mps 746 mmHg 82%
    22:00 +21°C° 0 mm 3 mps 746 mmHg 83%
    23:00 +21°C° 0 mm 3 mps 746 mmHg 84%
    Show more